Time,TemperatureF,DewpointF,PressureIn,WindDirection,WindDirectionDegrees,WindSpeedMPH,WindSpeedGustMPH,Humidity,HourlyPrecipIn,Conditions,Clouds,dailyrainin,SoftwareType,DateUTC
2013-09-10 00:00:00,77.0,68.9,29.79,SSW,211,0.0,0.0,76,0.00,,CLR,0.00,VWS V14.01,2013-09-10 05:00:00,
2013-09-10 00:03:00,76.9,68.8,29.79,SSW,211,0.0,0.0,76,0.00,,CLR,0.00,VWS V14.01,2013-09-10 05:03:00,
2013-09-10 00:08:00,76.8,68.7,29.79,SSW,211,0.0,0.0,76,0.00,,CLR,0.00,VWS V14.01,2013-09-10 05:08:00,
2013-09-10 00:13:00,76.7,68.9,29.79,SSW,211,0.0,0.0,77,0.00,,CLR,0.00,VWS V14.01,2013-09-10 05:13:00,
2013-09-10 00:18:00,76.6,68.9,29.79,SSW,211,0.0,0.0,77,0.00,,CLR,0.00,VWS V14.01,2013-09-10 05:18:00,
2013-09-10 00:23:00,76.4,68.7,29.79,SSW,211,0.0,0.0,77,0.00,,CLR,0.00,VWS V14.01,2013-09-10 05:23:00,
2013-09-10 00:28:00,76.3,68.6,29.79,SSW,211,0.0,0.0,77,0.00,,CLR,0.00,VWS V14.01,2013-09-10 05:28:00,
2013-09-10 00:30:00,76.3,68.6,29.79,SSW,211,0.0,0.0,77,0.00,,CLR,0.00,VWS V14.01,2013-09-10 05:30:00,
2013-09-10 00:33:00,76.2,68.1,29.79,SSW,211,0.0,0.0,76,0.00,,CLR,0.00,VWS V14.01,2013-09-10 05:33:00,
2013-09-10 00:38:00,76.1,67.6,29.79,SSW,211,0.0,0.0,75,0.00,,CLR,0.00,VWS V14.01,2013-09-10 05:38:00,
2013-09-10 00:43:00,76.2,67.7,29.79,SSW,211,0.0,0.0,75,0.00,,CLR,0.00,VWS V14.01,2013-09-10 05:43:00,
2013-09-10 00:49:00,76.2,67.7,29.80,SSW,211,0.0,0.0,75,0.00,,CLR,0.00,VWS V14.01,2013-09-10 05:49:00,
2013-09-10 00:54:00,76.2,67.3,29.80,SSW,211,0.0,0.0,74,0.00,,CLR,0.00,VWS V14.01,2013-09-10 05:54:00,
2013-09-10 00:59:00,76.2,67.3,29.80,SSW,211,0.0,0.0,74,0.00,,CLR,0.00,VWS V14.01,2013-09-10 05:59:00,
2013-09-10 01:00:00,76.2,67.3,29.80,SSW,211,0.0,0.0,74,0.00,,CLR,0.00,VWS V14.01,2013-09-10 06:00:00,
2013-09-10 01:04:00,76.3,67.8,29.80,South,187,0.0,1.0,75,0.00,,CLR,0.00,VWS V14.01,2013-09-10 06:04:00,
2013-09-10 01:09:00,76.3,67.4,29.80,South,187,0.0,1.0,74,0.00,,CLR,0.00,VWS V14.01,2013-09-10 06:09:00,
2013-09-10 01:14:00,76.5,67.2,29.80,South,187,0.0,1.0,73,0.00,,CLR,0.00,VWS V14.01,2013-09-10 06:14:00,
2013-09-10 01:19:00,76.7,67.4,29.80,South,187,0.0,1.0,73,0.00,,CLR,0.00,VWS V14.01,2013-09-10 06:19:00,
2013-09-10 01:24:00,76.8,67.5,29.80,South,187,0.0,1.0,73,0.00,,CLR,0.00,VWS V14.01,2013-09-10 06:24:00,
2013-09-10 01:29:00,76.7,67.4,29.80,South,187,0.0,0.0,73,0.00,,CLR,0.00,VWS V14.01,2013-09-10 06:29:00,
2013-09-10 01:30:00,76.7,67.8,29.80,South,187,0.0,1.0,74,0.00,,CLR,0.00,VWS V14.01,2013-09-10 06:30:00,
2013-09-10 01:34:00,76.4,67.5,29.80,South,187,0.0,0.0,74,0.00,,CLR,0.00,VWS V14.01,2013-09-10 06:34:00,
2013-09-10 01:39:00,76.2,67.3,29.80,South,187,0.0,0.0,74,0.00,,CLR,0.00,VWS V14.01,2013-09-10 06:39:00,
2013-09-10 01:45:00,76.1,67.2,29.80,South,187,0.0,0.0,74,0.00,,CLR,0.00,VWS V14.01,2013-09-10 06:45:00,
2013-09-10 01:50:00,76.2,67.3,29.80,South,187,0.0,0.0,74,0.00,,CLR,0.00,VWS V14.01,2013-09-10 06:50:00,
2013-09-10 01:55:00,76.1,67.2,29.81,South,187,0.0,0.0,74,0.00,,CLR,0.00,VWS V14.01,2013-09-10 06:55:00,
2013-09-10 02:00:00,75.9,67.4,29.81,South,187,0.0,0.0,75,0.00,,CLR,0.00,VWS V14.01,2013-09-10 07:00:00,
2013-09-10 02:05:00,75.7,67.2,29.81,South,187,0.0,0.0,75,0.00,,CLR,0.00,VWS V14.01,2013-09-10 07:05:00,
2013-09-10 02:10:00,75.4,67.7,29.81,South,187,0.0,0.0,77,0.00,,CLR,0.00,VWS V14.01,2013-09-10 07:10:00,
2013-09-10 02:15:00,75.0,67.3,29.81,South,187,0.0,0.0,77,0.00,,CLR,0.00,VWS V14.01,2013-09-10 07:15:00,
2013-09-10 02:20:00,74.7,67.4,29.81,South,187,0.0,0.0,78,0.00,,CLR,0.00,VWS V14.01,2013-09-10 07:20:00,
2013-09-10 02:25:00,74.5,67.2,29.81,South,187,0.0,0.0,78,0.00,,CLR,0.00,VWS V14.01,2013-09-10 07:25:00,
2013-09-10 02:30:00,74.3,67.0,29.81,South,187,0.0,0.0,78,0.00,,CLR,0.00,VWS V14.01,2013-09-10 07:30:00,
2013-09-10 02:35:00,74.1,67.2,29.81,South,187,0.0,0.0,79,0.00,,CLR,0.00,VWS V14.01,2013-09-10 07:35:00,
2013-09-10 02:40:00,73.9,67.0,29.81,South,187,0.0,0.0,79,0.00,,CLR,0.00,VWS V14.01,2013-09-10 07:40:00,
2013-09-10 02:46:00,73.7,66.8,29.81,South,187,0.0,0.0,79,0.00,,CLR,0.00,VWS V14.01,2013-09-10 07:46:00,
2013-09-10 02:51:00,73.5,67.0,29.82,South,187,0.0,0.0,80,0.00,,CLR,0.00,VWS V14.01,2013-09-10 07:51:00,
2013-09-10 02:56:00,73.4,66.9,29.82,South,187,0.0,0.0,80,0.00,,CLR,0.00,VWS V14.01,2013-09-10 07:56:00,
2013-09-10 03:00:00,73.3,67.1,29.82,South,187,0.0,0.0,81,0.00,,CLR,0.00,VWS V14.01,2013-09-10 08:00:00,
2013-09-10 03:01:00,73.2,67.0,29.82,South,187,0.0,0.0,81,0.00,,CLR,0.00,VWS V14.01,2013-09-10 08:01:00,
2013-09-10 03:06:00,73.0,66.8,29.82,South,187,0.0,0.0,81,0.00,,CLR,0.00,VWS V14.01,2013-09-10 08:06:00,
2013-09-10 03:11:00,72.8,66.6,29.82,South,187,0.0,0.0,81,0.00,,CLR,0.00,VWS V14.01,2013-09-10 08:11:00,
2013-09-10 03:16:00,72.7,66.5,29.82,South,187,0.0,0.0,81,0.00,,CLR,0.00,VWS V14.01,2013-09-10 08:16:00,
2013-09-10 03:21:00,72.6,66.4,29.82,South,187,0.0,0.0,81,0.00,,CLR,0.00,VWS V14.01,2013-09-10 08:21:00,
2013-09-10 03:26:00,72.5,66.3,29.82,South,187,0.0,0.0,81,0.00,,CLR,0.00,VWS V14.01,2013-09-10 08:26:00,
2013-09-10 03:30:00,72.4,66.2,29.82,South,187,0.0,0.0,81,0.00,,CLR,0.00,VWS V14.01,2013-09-10 08:30:00,
2013-09-10 03:31:00,72.3,66.2,29.82,South,187,0.0,0.0,81,0.00,,CLR,0.00,VWS V14.01,2013-09-10 08:31:00,
2013-09-10 03:36:00,72.1,66.3,29.82,South,187,0.0,0.0,82,0.00,,CLR,0.00,VWS V14.01,2013-09-10 08:36:00,
2013-09-10 03:41:00,72.0,66.2,29.82,South,187,0.0,0.0,82,0.00,,CLR,0.00,VWS V14.01,2013-09-10 08:41:00,
2013-09-10 03:46:00,71.8,66.4,29.82,South,187,0.0,0.0,83,0.00,,CLR,0.00,VWS V14.01,2013-09-10 08:46:00,
2013-09-10 03:52:00,71.6,66.2,29.83,South,187,0.0,0.0,83,0.00,,CLR,0.00,VWS V14.01,2013-09-10 08:52:00,
2013-09-10 03:57:00,71.5,66.4,29.83,South,187,0.0,0.0,84,0.00,,CLR,0.00,VWS V14.01,2013-09-10 08:57:00,
2013-09-10 04:00:00,71.5,66.4,29.83,South,187,0.0,0.0,84,0.00,,CLR,0.00,VWS V14.01,2013-09-10 09:00:00,
2013-09-10 04:02:00,71.4,66.3,29.83,South,187,0.0,0.0,84,0.00,,CLR,0.00,VWS V14.01,2013-09-10 09:02:00,
2013-09-10 04:07:00,71.3,66.2,29.83,South,187,0.0,0.0,84,0.00,,CLR,0.00,VWS V14.01,2013-09-10 09:07:00,
2013-09-10 04:12:00,71.3,66.2,29.83,South,187,0.0,0.0,84,0.00,,CLR,0.00,VWS V14.01,2013-09-10 09:12:00,
2013-09-10 04:17:00,71.3,66.6,29.83,South,187,0.0,0.0,85,0.00,,CLR,0.00,VWS V14.01,2013-09-10 09:17:00,
2013-09-10 04:22:00,71.2,66.5,29.83,South,187,0.0,0.0,85,0.00,,CLR,0.00,VWS V14.01,2013-09-10 09:22:00,
2013-09-10 04:27:00,71.1,66.4,29.83,South,187,0.0,0.0,85,0.00,,CLR,0.00,VWS V14.01,2013-09-10 09:27:00,
2013-09-10 04:30:00,71.1,66.4,29.83,South,187,0.0,0.0,85,0.00,,CLR,0.00,VWS V14.01,2013-09-10 09:30:00,
2013-09-10 04:32:00,71.0,66.3,29.84,South,187,0.0,0.0,85,0.00,,CLR,0.00,VWS V14.01,2013-09-10 09:32:00,
2013-09-10 04:37:00,70.9,66.5,29.84,South,187,0.0,0.0,86,0.00,,CLR,0.00,VWS V14.01,2013-09-10 09:37:00,
2013-09-10 04:42:00,70.7,66.3,29.84,South,187,0.0,0.0,86,0.00,,CLR,0.00,VWS V14.01,2013-09-10 09:42:00,
2013-09-10 04:47:00,70.6,65.9,29.84,South,187,0.0,0.0,85,0.00,,CLR,0.00,VWS V14.01,2013-09-10 09:47:00,
2013-09-10 04:52:00,70.4,66.0,29.84,South,187,0.0,0.0,86,0.00,,CLR,0.00,VWS V14.01,2013-09-10 09:52:00,
2013-09-10 04:58:00,70.3,65.9,29.84,South,187,0.0,0.0,86,0.00,,CLR,0.00,VWS V14.01,2013-09-10 09:58:00,
2013-09-10 05:00:00,70.3,65.9,29.84,South,187,0.0,0.0,86,0.00,,CLR,0.00,VWS V14.01,2013-09-10 10:00:00,
2013-09-10 05:03:00,70.2,66.2,29.84,South,187,0.0,0.0,87,0.00,,CLR,0.00,VWS V14.01,2013-09-10 10:03:00,
2013-09-10 05:08:00,70.2,66.2,29.84,South,187,0.0,0.0,87,0.00,,CLR,0.00,VWS V14.01,2013-09-10 10:08:00,
2013-09-10 05:13:00,70.3,66.2,29.84,South,187,0.0,0.0,87,0.00,,CLR,0.00,VWS V14.01,2013-09-10 10:13:00,
2013-09-10 05:18:00,70.3,66.2,29.84,South,187,0.0,0.0,87,0.00,,CLR,0.00,VWS V14.01,2013-09-10 10:18:00,
2013-09-10 05:23:00,70.3,65.9,29.84,South,187,0.0,0.0,86,0.00,,CLR,0.00,VWS V14.01,2013-09-10 10:23:00,
2013-09-10 05:28:00,70.3,65.9,29.85,South,187,0.0,0.0,86,0.00,,CLR,0.00,VWS V14.01,2013-09-10 10:28:00,
2013-09-10 05:30:00,70.3,65.9,29.85,South,187,0.0,0.0,86,0.00,,CLR,0.00,VWS V14.01,2013-09-10 10:30:00,
2013-09-10 05:33:00,70.2,65.5,29.85,South,187,0.0,0.0,85,0.00,,CLR,0.00,VWS V14.01,2013-09-10 10:33:00,
2013-09-10 05:38:00,70.2,65.5,29.85,South,187,0.0,0.0,85,0.00,,CLR,0.00,VWS V14.01,2013-09-10 10:38:00,
2013-09-10 05:43:00,70.1,65.4,29.85,South,187,0.0,0.0,85,0.00,,CLR,0.00,VWS V14.01,2013-09-10 10:43:00,
2013-09-10 05:48:00,70.0,65.6,29.85,South,187,0.0,0.0,86,0.00,,CLR,0.00,VWS V14.01,2013-09-10 10:48:00,
2013-09-10 05:53:00,69.9,65.5,29.85,South,187,0.0,0.0,86,0.00,,CLR,0.00,VWS V14.01,2013-09-10 10:53:00,
2013-09-10 05:59:00,69.8,65.4,29.86,South,187,0.0,0.0,86,0.00,,CLR,0.00,VWS V14.01,2013-09-10 10:59:00,
2013-09-10 06:00:00,69.8,65.4,29.86,South,187,0.0,0.0,86,0.00,,CLR,0.00,VWS V14.01,2013-09-10 11:00:00,
2013-09-10 06:04:00,69.7,65.3,29.86,South,187,0.0,0.0,86,0.00,,CLR,0.00,VWS V14.01,2013-09-10 11:04:00,
2013-09-10 06:09:00,69.6,65.6,29.86,South,187,0.0,0.0,87,0.00,,CLR,0.00,VWS V14.01,2013-09-10 11:09:00,
2013-09-10 06:14:00,69.5,65.5,29.86,South,187,0.0,0.0,87,0.00,,CLR,0.00,VWS V14.01,2013-09-10 11:14:00,
2013-09-10 06:19:00,69.6,65.2,29.86,South,187,0.0,0.0,86,0.00,,CLR,0.00,VWS V14.01,2013-09-10 11:19:00,
2013-09-10 06:24:00,69.5,65.1,29.86,South,187,0.0,0.0,86,0.00,,CLR,0.00,VWS V14.01,2013-09-10 11:24:00,
2013-09-10 06:29:00,69.5,65.1,29.87,South,187,0.0,0.0,86,0.00,,CLR,0.00,VWS V14.01,2013-09-10 11:29:00,
2013-09-10 06:30:00,69.5,65.1,29.87,South,187,0.0,0.0,86,0.00,,CLR,0.00,VWS V14.01,2013-09-10 11:30:00,
2013-09-10 06:34:00,69.5,65.1,29.87,South,187,0.0,0.0,86,0.00,,CLR,0.00,VWS V14.01,2013-09-10 11:34:00,
2013-09-10 06:39:00,69.4,65.4,29.87,South,187,0.0,0.0,87,0.00,,CLR,0.00,VWS V14.01,2013-09-10 11:39:00,
2013-09-10 06:44:00,69.3,65.3,29.87,South,187,0.0,0.0,87,0.00,,CLR,0.00,VWS V14.01,2013-09-10 11:44:00,
2013-09-10 06:49:00,69.2,65.2,29.87,South,187,0.0,0.0,87,0.00,,CLR,0.00,VWS V14.01,2013-09-10 11:49:00,
2013-09-10 06:54:00,69.0,65.3,29.87,South,187,0.0,0.0,88,0.00,,CLR,0.00,VWS V14.01,2013-09-10 11:54:00,
2013-09-10 06:59:00,68.9,65.2,29.88,South,187,0.0,0.0,88,0.00,,CLR,0.00,VWS V14.01,2013-09-10 11:59:00,
2013-09-10 07:00:00,68.9,65.2,29.88,South,187,0.0,0.0,88,0.00,,CLR,0.00,VWS V14.01,2013-09-10 12:00:00,
2013-09-10 07:05:00,68.8,65.1,29.88,South,187,0.0,0.0,88,0.00,,CLR,0.00,VWS V14.01,2013-09-10 12:05:00,
2013-09-10 07:10:00,68.8,65.4,29.88,South,187,0.0,0.0,89,0.00,,CLR,0.00,VWS V14.01,2013-09-10 12:10:00,
2013-09-10 07:15:00,68.9,65.5,29.88,South,187,0.0,0.0,89,0.00,,CLR,0.00,VWS V14.01,2013-09-10 12:15:00,
2013-09-10 07:20:00,69.0,65.6,29.88,South,187,0.0,0.0,89,0.00,,CLR,0.00,VWS V14.01,2013-09-10 12:20:00,
2013-09-10 07:25:00,69.0,65.6,29.88,South,187,0.0,0.0,89,0.00,,CLR,0.00,VWS V14.01,2013-09-10 12:25:00,
2013-09-10 07:30:00,69.0,65.6,29.88,South,187,0.0,0.0,89,0.00,,CLR,0.00,VWS V14.01,2013-09-10 12:30:00,
2013-09-10 07:35:00,69.1,66.1,29.89,South,187,0.0,0.0,90,0.00,,CLR,0.00,VWS V14.01,2013-09-10 12:35:00,
2013-09-10 07:40:00,69.2,66.2,29.89,South,187,0.0,0.0,90,0.00,,CLR,0.00,VWS V14.01,2013-09-10 12:40:00,
2013-09-10 07:45:00,69.3,66.2,29.89,South,187,0.0,0.0,90,0.00,,CLR,0.00,VWS V14.01,2013-09-10 12:45:00,
2013-09-10 07:50:00,69.5,66.8,29.89,South,187,0.0,0.0,91,0.00,,CLR,0.00,VWS V14.01,2013-09-10 12:50:00,
2013-09-10 07:55:00,69.8,67.1,29.89,South,187,0.0,0.0,91,0.00,,CLR,0.00,VWS V14.01,2013-09-10 12:55:00,
2013-09-10 08:00:00,70.0,67.3,29.89,South,187,0.0,0.0,91,0.00,,CLR,0.00,VWS V14.01,2013-09-10 13:00:00,
2013-09-10 08:05:00,70.3,67.6,29.90,South,187,0.0,0.0,91,0.00,,CLR,0.00,VWS V14.01,2013-09-10 13:05:00,
2013-09-10 08:10:00,70.7,67.9,29.90,South,187,0.0,0.0,91,0.00,,CLR,0.00,VWS V14.01,2013-09-10 13:10:00,
2013-09-10 08:15:00,71.0,68.2,29.90,South,187,0.0,0.0,91,0.00,,CLR,0.00,VWS V14.01,2013-09-10 13:15:00,
2013-09-10 08:21:00,71.5,68.7,29.90,South,187,0.0,0.0,91,0.00,,CLR,0.00,VWS V14.01,2013-09-10 13:21:00,
2013-09-10 08:26:00,72.0,69.2,29.90,South,187,0.0,0.0,91,0.00,,CLR,0.00,VWS V14.01,2013-09-10 13:26:00,
2013-09-10 08:30:00,72.3,69.2,29.90,South,187,0.0,0.0,90,0.00,,CLR,0.00,VWS V14.01,2013-09-10 13:30:00,
2013-09-10 08:31:00,72.4,69.0,29.90,South,187,0.0,0.0,89,0.00,,CLR,0.00,VWS V14.01,2013-09-10 13:31:00,
2013-09-10 08:36:00,72.9,68.8,29.90,South,187,0.0,0.0,87,0.00,,CLR,0.00,VWS V14.01,2013-09-10 13:36:00,
2013-09-10 08:41:00,73.5,69.1,29.90,South,187,0.0,0.0,86,0.00,,CLR,0.00,VWS V14.01,2013-09-10 13:41:00,
2013-09-10 08:46:00,74.1,69.7,29.90,South,187,0.0,0.0,86,0.00,,CLR,0.00,VWS V14.01,2013-09-10 13:46:00,
2013-09-10 08:51:00,74.6,68.8,29.91,South,187,0.0,0.0,82,0.00,,CLR,0.00,VWS V14.01,2013-09-10 13:51:00,
2013-09-10 08:56:00,75.2,69.0,29.91,South,187,0.0,0.0,81,0.00,,CLR,0.00,VWS V14.01,2013-09-10 13:56:00,
2013-09-10 09:00:00,75.6,69.0,29.91,South,187,0.0,0.0,80,0.00,,CLR,0.00,VWS V14.01,2013-09-10 14:00:00,
2013-09-10 09:01:00,75.9,69.3,29.91,South,187,0.0,0.0,80,0.00,,CLR,0.00,VWS V14.01,2013-09-10 14:01:00,
2013-09-10 09:06:00,76.6,69.6,29.91,South,187,0.0,0.0,79,0.00,,CLR,0.00,VWS V14.01,2013-09-10 14:06:00,
2013-09-10 09:11:00,77.3,69.5,29.91,ESE,102,0.0,1.0,77,0.00,,CLR,0.00,VWS V14.01,2013-09-10 14:11:00,
2013-09-10 09:16:00,78.0,69.8,29.91,ESE,102,0.0,1.0,76,0.00,,CLR,0.00,VWS V14.01,2013-09-10 14:16:00,
2013-09-10 09:21:00,78.9,71.5,29.91,ESE,102,0.0,1.0,78,0.00,,CLR,0.00,VWS V14.01,2013-09-10 14:21:00,
2013-09-10 09:26:00,79.9,68.8,29.91,SSE,150,0.0,1.0,69,0.00,,CLR,0.00,VWS V14.01,2013-09-10 14:26:00,
2013-09-10 09:30:00,80.5,70.7,29.91,SSE,150,0.0,1.0,72,0.00,,CLR,0.00,VWS V14.01,2013-09-10 14:30:00,
2013-09-10 09:31:00,81.0,70.3,29.91,SSE,150,0.0,0.0,70,0.00,,CLR,0.00,VWS V14.01,2013-09-10 14:31:00,
2013-09-10 09:37:00,81.7,70.1,29.92,West,276,0.0,1.0,68,0.00,,CLR,0.00,VWS V14.01,2013-09-10 14:37:00,
2013-09-10 09:42:00,82.4,68.6,29.92,SW,231,0.0,1.0,63,0.00,,CLR,0.00,VWS V14.01,2013-09-10 14:42:00,
2013-09-10 09:47:00,83.0,69.1,29.92,SSW,193,0.0,3.0,63,0.00,,CLR,0.00,VWS V14.01,2013-09-10 14:47:00,
2013-09-10 09:52:00,83.5,69.6,29.92,SSW,193,0.0,3.0,63,0.00,,CLR,0.00,VWS V14.01,2013-09-10 14:52:00,
2013-09-10 09:57:00,84.1,69.7,29.92,SSW,193,0.0,3.0,62,0.00,,CLR,0.00,VWS V14.01,2013-09-10 14:57:00,
2013-09-10 10:00:00,84.4,69.5,29.92,WSW,255,0.0,3.0,61,0.00,,CLR,0.00,VWS V14.01,2013-09-10 15:00:00,
2013-09-10 10:02:00,84.7,69.8,29.92,WSW,252,0.0,0.0,61,0.00,,CLR,0.00,VWS V14.01,2013-09-10 15:02:00,
2013-09-10 10:07:00,85.5,71.0,29.92,WSW,244,0.0,0.0,62,0.00,,CLR,0.00,VWS V14.01,2013-09-10 15:07:00,
2013-09-10 10:12:00,86.1,69.6,29.92,NNW,347,0.0,1.0,58,0.00,,CLR,0.00,VWS V14.01,2013-09-10 15:12:00,
2013-09-10 10:17:00,86.7,70.2,29.92,West,266,0.0,1.0,58,0.00,,CLR,0.00,VWS V14.01,2013-09-10 15:17:00,
2013-09-10 10:22:00,87.2,70.1,29.92,NW,326,0.0,4.0,57,0.00,,CLR,0.00,VWS V14.01,2013-09-10 15:22:00,
2013-09-10 10:27:00,87.6,68.9,29.92,NW,311,1.0,4.0,54,0.00,,CLR,0.00,VWS V14.01,2013-09-10 15:27:00,
2013-09-10 10:30:00,87.7,69.5,29.92,NE,47,0.0,4.0,55,0.00,,CLR,0.00,VWS V14.01,2013-09-10 15:30:00,
2013-09-10 10:32:00,87.8,68.6,29.92,NW,323,0.0,1.0,53,0.00,,CLR,0.00,VWS V14.01,2013-09-10 15:32:00,
2013-09-10 10:37:00,88.1,69.4,29.92,NNW,344,0.0,1.0,54,0.00,,CLR,0.00,VWS V14.01,2013-09-10 15:37:00,
2013-09-10 10:42:00,88.4,70.2,29.92,NW,325,4.0,4.0,55,0.00,,CLR,0.00,VWS V14.01,2013-09-10 15:42:00,
2013-09-10 10:48:00,88.6,69.3,29.92,NNW,342,0.0,5.0,53,0.00,,CLR,0.00,VWS V14.01,2013-09-10 15:48:00,
2013-09-10 10:53:00,88.7,68.8,29.92,NW,317,0.0,5.0,52,0.00,,CLR,0.00,VWS V14.01,2013-09-10 15:53:00,
2013-09-10 10:58:00,89.0,69.7,29.92,WNW,288,0.0,5.0,53,0.00,,CLR,0.00,VWS V14.01,2013-09-10 15:58:00,
2013-09-10 11:00:00,89.1,70.8,29.92,WNW,288,0.0,5.0,55,0.00,,CLR,0.00,VWS V14.01,2013-09-10 16:00:00,
2013-09-10 11:03:00,89.3,68.8,29.92,WNW,290,3.0,3.0,51,0.00,,CLR,0.00,VWS V14.01,2013-09-10 16:03:00,
2013-09-10 11:08:00,89.6,69.1,29.92,West,270,1.0,3.0,51,0.00,,CLR,0.00,VWS V14.01,2013-09-10 16:08:00,
2013-09-10 11:13:00,89.8,68.7,29.92,WSW,255,0.0,3.0,50,0.00,,CLR,0.00,VWS V14.01,2013-09-10 16:13:00,
2013-09-10 11:18:00,89.9,69.4,29.92,NW,309,0.0,3.0,51,0.00,,CLR,0.00,VWS V14.01,2013-09-10 16:18:00,
2013-09-10 11:23:00,90.1,68.4,29.92,North,10,1.0,3.0,49,0.00,,CLR,0.00,VWS V14.01,2013-09-10 16:23:00,
2013-09-10 11:28:00,90.4,69.2,29.92,WSW,238,1.0,3.0,50,0.00,,CLR,0.00,VWS V14.01,2013-09-10 16:28:00,
2013-09-10 11:30:00,90.4,68.1,29.92,WSW,241,0.0,3.0,48,0.00,,CLR,0.00,VWS V14.01,2013-09-10 16:30:00,
2013-09-10 11:33:00,90.6,68.2,29.92,SSW,205,0.0,2.0,48,0.00,,CLR,0.00,VWS V14.01,2013-09-10 16:33:00,
2013-09-10 11:38:00,90.8,67.8,29.92,WSW,244,1.0,2.0,47,0.00,,CLR,0.00,VWS V14.01,2013-09-10 16:38:00,
2013-09-10 11:43:00,90.8,69.0,29.92,WNW,294,0.0,3.0,49,0.00,,CLR,0.00,VWS V14.01,2013-09-10 16:43:00,
2013-09-10 11:48:00,91.1,69.3,29.92,North,5,0.0,3.0,49,0.00,,CLR,0.00,VWS V14.01,2013-09-10 16:48:00,
2013-09-10 11:54:00,91.7,68.6,29.92,WNW,284,0.0,3.0,47,0.00,,CLR,0.00,VWS V14.01,2013-09-10 16:54:00,
2013-09-10 11:59:00,91.8,68.7,29.91,West,259,0.0,3.0,47,0.00,,CLR,0.00,VWS V14.01,2013-09-10 16:59:00,
2013-09-10 12:00:00,91.9,70.0,29.91,West,259,0.0,3.0,49,0.00,,CLR,0.00,VWS V14.01,2013-09-10 17:00:00,
2013-09-10 12:04:00,92.0,69.5,29.91,West,277,0.0,4.0,48,0.00,,CLR,0.00,VWS V14.01,2013-09-10 17:04:00,
2013-09-10 12:09:00,92.4,69.3,29.91,West,278,0.0,4.0,47,0.00,,CLR,0.00,VWS V14.01,2013-09-10 17:09:00,
2013-09-10 12:14:00,92.4,68.0,29.91,SW,233,0.0,4.0,45,0.00,,CLR,0.00,VWS V14.01,2013-09-10 17:14:00,
2013-09-10 12:19:00,92.6,69.4,29.91,WNW,285,0.0,4.0,47,0.00,,CLR,0.00,VWS V14.01,2013-09-10 17:19:00,
2013-09-10 12:24:00,92.8,66.4,29.91,WNW,290,1.0,4.0,42,0.00,,CLR,0.00,VWS V14.01,2013-09-10 17:24:00,
2013-09-10 12:29:00,92.9,67.1,29.91,West,261,0.0,4.0,43,0.00,,CLR,0.00,VWS V14.01,2013-09-10 17:29:00,
2013-09-10 12:30:00,92.9,67.1,29.91,West,261,0.0,4.0,43,0.00,,CLR,0.00,VWS V14.01,2013-09-10 17:30:00,
2013-09-10 12:34:00,93.2,68.1,29.91,West,278,1.0,1.0,44,0.00,,CLR,0.00,VWS V14.01,2013-09-10 17:34:00,
2013-09-10 12:39:00,93.5,70.3,29.90,NW,321,1.0,2.0,47,0.00,,CLR,0.00,VWS V14.01,2013-09-10 17:39:00,
2013-09-10 12:44:00,93.8,69.9,29.90,West,279,0.0,2.0,46,0.00,,CLR,0.00,VWS V14.01,2013-09-10 17:44:00,
2013-09-10 12:49:00,94.1,66.8,29.91,NW,320,0.0,2.0,41,0.00,,CLR,0.00,VWS V14.01,2013-09-10 17:49:00,
2013-09-10 12:54:00,94.3,67.0,29.90,SE,132,1.0,2.0,41,0.00,,CLR,0.00,VWS V14.01,2013-09-10 17:54:00,
2013-09-10 13:00:00,94.2,65.5,29.91,SSE,148,2.0,2.0,39,0.00,,CLR,0.00,VWS V14.01,2013-09-10 18:00:00,
2013-09-10 13:05:00,93.7,66.5,29.90,SW,228,0.0,3.0,41,0.00,,CLR,0.00,VWS V14.01,2013-09-10 18:05:00,
2013-09-10 13:10:00,93.6,65.7,29.90,South,180,0.0,3.0,40,0.00,,CLR,0.00,VWS V14.01,2013-09-10 18:10:00,
2013-09-10 13:15:00,93.6,67.1,29.90,SSW,192,1.0,4.0,42,0.00,,CLR,0.00,VWS V14.01,2013-09-10 18:15:00,
2013-09-10 13:20:00,93.7,67.8,29.90,SW,229,0.0,4.0,43,0.00,,CLR,0.00,VWS V14.01,2013-09-10 18:20:00,
2013-09-10 13:25:00,93.9,65.9,29.90,WSW,254,0.0,4.0,40,0.00,,CLR,0.00,VWS V14.01,2013-09-10 18:25:00,
2013-09-10 13:30:00,93.9,66.6,29.90,SW,218,0.0,0.0,41,0.00,,CLR,0.00,VWS V14.01,2013-09-10 18:30:00,
2013-09-10 13:35:00,93.9,67.3,29.90,ESE,115,0.0,3.0,42,0.00,,CLR,0.00,VWS V14.01,2013-09-10 18:35:00,
2013-09-10 13:40:00,94.0,65.3,29.89,ESE,108,0.0,3.0,39,0.00,,CLR,0.00,VWS V14.01,2013-09-10 18:40:00,
2013-09-10 13:45:00,94.0,66.7,29.89,SE,131,0.0,3.0,41,0.00,,CLR,0.00,VWS V14.01,2013-09-10 18:45:00,
2013-09-10 13:50:00,93.9,65.2,29.89,NW,317,0.0,3.0,39,0.00,,CLR,0.00,VWS V14.01,2013-09-10 18:50:00,
2013-09-10 13:55:00,93.8,67.2,29.89,South,175,0.0,3.0,42,0.00,,CLR,0.00,VWS V14.01,2013-09-10 18:55:00,
2013-09-10 14:00:00,93.7,66.5,29.88,ESE,106,0.0,1.0,41,0.00,,CLR,0.00,VWS V14.01,2013-09-10 19:00:00,
2013-09-10 14:05:00,93.4,66.2,29.88,WSW,237,0.0,3.0,41,0.00,,CLR,0.00,VWS V14.01,2013-09-10 19:05:00,
2013-09-10 14:11:00,93.1,65.2,29.88,SW,221,0.0,4.0,40,0.00,,CLR,0.00,VWS V14.01,2013-09-10 19:11:00,
2013-09-10 14:16:00,92.9,66.4,29.88,SSE,158,0.0,4.0,42,0.00,,CLR,0.00,VWS V14.01,2013-09-10 19:16:00,
2013-09-10 14:21:00,92.9,65.8,29.88,SSW,196,0.0,4.0,41,0.00,,CLR,0.00,VWS V14.01,2013-09-10 19:21:00,
2013-09-10 14:26:00,92.8,63.5,29.88,WSW,238,0.0,4.0,38,0.00,,CLR,0.00,VWS V14.01,2013-09-10 19:26:00,
2013-09-10 14:30:00,92.9,64.3,29.88,South,186,1.0,4.0,39,0.00,,CLR,0.00,VWS V14.01,2013-09-10 19:30:00,
2013-09-10 14:31:00,92.8,64.2,29.88,South,179,2.0,2.0,39,0.00,,CLR,0.00,VWS V14.01,2013-09-10 19:31:00,
2013-09-10 14:36:00,92.9,65.0,29.88,South,182,1.0,2.0,40,0.00,,CLR,0.00,VWS V14.01,2013-09-10 19:36:00,
2013-09-10 14:41:00,92.8,64.9,29.87,ESE,113,1.0,2.0,40,0.00,,CLR,0.00,VWS V14.01,2013-09-10 19:41:00,
2013-09-10 14:46:00,92.8,64.9,29.87,SSE,165,0.0,2.0,40,0.00,,CLR,0.00,VWS V14.01,2013-09-10 19:46:00,
2013-09-10 14:51:00,92.8,63.5,29.87,South,171,0.0,2.0,38,0.00,,CLR,0.00,VWS V14.01,2013-09-10 19:51:00,
2013-09-10 14:56:00,92.9,64.3,29.87,South,191,0.0,2.0,39,0.00,,CLR,0.00,VWS V14.01,2013-09-10 19:56:00,
2013-09-10 15:00:00,92.9,62.8,29.87,SSE,166,0.0,2.0,37,0.00,,CLR,0.00,VWS V14.01,2013-09-10 20:00:00,
2013-09-10 15:01:00,92.9,63.6,29.87,SE,131,0.0,4.0,38,0.00,,CLR,0.00,VWS V14.01,2013-09-10 20:01:00,
2013-09-10 15:06:00,92.9,65.0,29.86,South,174,3.0,4.0,40,0.00,,CLR,0.00,VWS V14.01,2013-09-10 20:06:00,
2013-09-10 15:11:00,93.0,64.4,29.86,South,171,1.0,4.0,39,0.00,,CLR,0.00,VWS V14.01,2013-09-10 20:11:00,
2013-09-10 15:17:00,92.9,63.6,29.86,SSW,207,0.0,4.0,38,0.00,,CLR,0.00,VWS V14.01,2013-09-10 20:17:00,
2013-09-10 15:22:00,92.8,62.7,29.86,South,180,0.0,4.0,37,0.00,,CLR,0.00,VWS V14.01,2013-09-10 20:22:00,
2013-09-10 15:27:00,92.8,64.2,29.86,South,172,2.0,4.0,39,0.00,,CLR,0.00,VWS V14.01,2013-09-10 20:27:00,
2013-09-10 15:30:00,92.7,62.6,29.86,SSW,197,0.0,4.0,37,0.00,,CLR,0.00,VWS V14.01,2013-09-10 20:30:00,
2013-09-10 15:32:00,92.7,63.4,29.85,SSE,167,0.0,1.0,38,0.00,,CLR,0.00,VWS V14.01,2013-09-10 20:32:00,
2013-09-10 15:37:00,92.6,64.8,29.85,SSW,209,1.0,1.0,40,0.00,,CLR,0.00,VWS V14.01,2013-09-10 20:37:00,
2013-09-10 15:42:00,92.6,64.1,29.85,SSW,192,0.0,1.0,39,0.00,,CLR,0.00,VWS V14.01,2013-09-10 20:42:00,
2013-09-10 15:47:00,92.6,65.5,29.85,SW,218,0.0,2.0,41,0.00,,CLR,0.00,VWS V14.01,2013-09-10 20:47:00,
2013-09-10 15:52:00,92.6,64.8,29.85,WNW,287,1.0,3.0,40,0.00,,CLR,0.00,VWS V14.01,2013-09-10 20:52:00,
2013-09-10 15:57:00,92.7,64.9,29.85,SE,140,0.0,3.0,40,0.00,,CLR,0.00,VWS V14.01,2013-09-10 20:57:00,
2013-09-10 16:00:00,92.7,66.3,29.85,SSE,155,0.0,3.0,42,0.00,,CLR,0.00,VWS V14.01,2013-09-10 21:00:00,
2013-09-10 16:02:00,92.7,64.9,29.85,SSE,149,0.0,3.0,40,0.00,,CLR,0.00,VWS V14.01,2013-09-10 21:02:00,
2013-09-10 16:07:00,92.7,64.9,29.85,South,180,0.0,3.0,40,0.00,,CLR,0.00,VWS V14.01,2013-09-10 21:07:00,
2013-09-10 16:12:00,92.6,64.1,29.85,SE,145,1.0,3.0,39,0.00,,CLR,0.00,VWS V14.01,2013-09-10 21:12:00,
2013-09-10 16:17:00,92.6,64.1,29.85,South,175,0.0,3.0,39,0.00,,CLR,0.00,VWS V14.01,2013-09-10 21:17:00,
2013-09-10 16:22:00,92.4,66.0,29.84,SSW,210,0.0,3.0,42,0.00,,CLR,0.00,VWS V14.01,2013-09-10 21:22:00,
2013-09-10 16:27:00,92.2,64.4,29.84,SW,227,0.0,3.0,40,0.00,,CLR,0.00,VWS V14.01,2013-09-10 21:27:00,
2013-09-10 16:30:00,92.0,65.6,29.84,SW,227,1.0,3.0,42,0.00,,CLR,0.00,VWS V14.01,2013-09-10 21:30:00,
2013-09-10 16:33:00,91.8,65.5,29.84,SW,219,0.0,1.0,42,0.00,,CLR,0.00,VWS V14.01,2013-09-10 21:33:00,
2013-09-10 16:38:00,91.4,65.8,29.84,SSW,209,0.0,1.0,43,0.00,,CLR,0.00,VWS V14.01,2013-09-10 21:38:00,
2013-09-10 16:43:00,90.9,66.6,29.84,South,185,0.0,4.0,45,0.00,,CLR,0.00,VWS V14.01,2013-09-10 21:43:00,
2013-09-10 16:48:00,90.7,65.8,29.84,SW,215,0.0,4.0,44,0.00,,CLR,0.00,VWS V14.01,2013-09-10 21:48:00,
2013-09-10 16:53:00,90.6,65.7,29.85,South,187,0.0,4.0,44,0.00,,CLR,0.00,VWS V14.01,2013-09-10 21:53:00,
2013-09-10 16:58:00,90.5,65.6,29.84,SE,128,0.0,4.0,44,0.00,,CLR,0.00,VWS V14.01,2013-09-10 21:58:00,
2013-09-10 17:00:00,90.4,66.2,29.84,SW,215,0.0,4.0,45,0.00,,CLR,0.00,VWS V14.01,2013-09-10 22:00:00,
2013-09-10 17:03:00,90.4,66.8,29.84,WSW,241,0.0,1.0,46,0.00,,CLR,0.00,VWS V14.01,2013-09-10 22:03:00,
2013-09-10 17:08:00,90.1,66.6,29.84,WSW,241,0.0,1.0,46,0.00,,CLR,0.00,VWS V14.01,2013-09-10 22:08:00,
2013-09-10 17:13:00,89.7,67.4,29.84,WSW,241,0.0,1.0,48,0.00,,CLR,0.00,VWS V14.01,2013-09-10 22:13:00,
2013-09-10 17:18:00,89.3,66.4,29.84,WSW,241,0.0,1.0,47,0.00,,CLR,0.00,VWS V14.01,2013-09-10 22:18:00,
2013-09-10 17:23:00,89.0,66.8,29.84,WSW,241,0.0,1.0,48,0.00,,CLR,0.00,VWS V14.01,2013-09-10 22:23:00,
2013-09-10 17:28:00,88.7,67.1,29.84,WSW,241,0.0,1.0,49,0.00,,CLR,0.00,VWS V14.01,2013-09-10 22:28:00,
2013-09-10 17:30:00,88.7,67.1,29.84,WSW,241,0.0,1.0,49,0.00,,CLR,0.00,VWS V14.01,2013-09-10 22:30:00,
2013-09-10 17:33:00,88.5,66.9,29.84,WSW,241,0.0,0.0,49,0.00,,CLR,0.00,VWS V14.01,2013-09-10 22:33:00,
2013-09-10 17:39:00,88.3,67.3,29.84,WSW,241,0.0,0.0,50,0.00,,CLR,0.00,VWS V14.01,2013-09-10 22:39:00,
2013-09-10 17:44:00,88.1,67.7,29.84,WSW,241,0.0,0.0,51,0.00,,CLR,0.00,VWS V14.01,2013-09-10 22:44:00,
2013-09-10 17:49:00,88.0,67.6,29.84,WSW,241,0.0,0.0,51,0.00,,CLR,0.00,VWS V14.01,2013-09-10 22:49:00,
2013-09-10 17:54:00,87.9,67.5,29.84,WSW,241,0.0,0.0,51,0.00,,CLR,0.00,VWS V14.01,2013-09-10 22:54:00,
2013-09-10 17:59:00,87.9,67.5,29.84,WSW,241,0.0,0.0,51,0.00,,CLR,0.00,VWS V14.01,2013-09-10 22:59:00,
2013-09-10 18:00:00,87.9,67.5,29.84,WSW,241,0.0,0.0,51,0.00,,CLR,0.00,VWS V14.01,2013-09-10 23:00:00,
2013-09-10 18:04:00,87.9,68.1,29.84,WSW,241,0.0,0.0,52,0.00,,CLR,0.00,VWS V14.01,2013-09-10 23:04:00,
2013-09-10 18:09:00,87.9,68.1,29.84,WSW,241,0.0,0.0,52,0.00,,CLR,0.00,VWS V14.01,2013-09-10 23:09:00,
2013-09-10 18:14:00,87.8,67.4,29.84,WSW,241,0.0,0.0,51,0.00,,CLR,0.00,VWS V14.01,2013-09-10 23:14:00,
2013-09-10 18:19:00,87.7,67.3,29.84,WSW,241,0.0,0.0,51,0.00,,CLR,0.00,VWS V14.01,2013-09-10 23:19:00,
2013-09-10 18:24:00,87.5,67.7,29.84,WSW,241,0.0,0.0,52,0.00,,CLR,0.00,VWS V14.01,2013-09-10 23:24:00,
2013-09-10 18:29:00,87.2,68.0,29.84,WSW,241,0.0,0.0,53,0.00,,CLR,0.00,VWS V14.01,2013-09-10 23:29:00,
2013-09-10 18:30:00,87.2,68.5,29.84,WSW,241,0.0,0.0,54,0.00,,CLR,0.00,VWS V14.01,2013-09-10 23:30:00,
2013-09-10 18:34:00,86.8,68.2,29.84,WSW,241,0.0,0.0,54,0.00,,CLR,0.00,VWS V14.01,2013-09-10 23:34:00,
2013-09-10 18:39:00,86.3,69.3,29.84,WSW,241,0.0,0.0,57,0.00,,CLR,0.00,VWS V14.01,2013-09-10 23:39:00,
2013-09-10 18:45:00,85.9,69.4,29.84,WSW,241,0.0,0.0,58,0.00,,CLR,0.00,VWS V14.01,2013-09-10 23:45:00,
2013-09-10 18:50:00,85.4,68.4,29.84,WSW,241,0.0,0.0,57,0.00,,CLR,0.00,VWS V14.01,2013-09-10 23:50:00,
2013-09-10 18:55:00,85.1,68.7,29.85,WSW,241,0.0,0.0,58,0.00,,CLR,0.00,VWS V14.01,2013-09-10 23:55:00,
2013-09-10 19:00:00,84.7,68.8,29.85,WSW,241,0.0,0.0,59,0.00,,CLR,0.00,VWS V14.01,2013-09-11 00:00:00,
2013-09-10 19:05:00,84.4,68.0,29.85,WSW,241,0.0,0.0,58,0.00,,CLR,0.00,VWS V14.01,2013-09-11 00:05:00,
2013-09-10 19:10:00,84.1,68.2,29.85,WSW,241,0.0,0.0,59,0.00,,CLR,0.00,VWS V14.01,2013-09-11 00:10:00,
2013-09-10 19:15:00,83.7,67.9,29.85,WSW,241,0.0,0.0,59,0.00,,CLR,0.00,VWS V14.01,2013-09-11 00:15:00,
2013-09-10 19:20:00,83.4,67.6,29.85,WSW,241,0.0,0.0,59,0.00,,CLR,0.00,VWS V14.01,2013-09-11 00:20:00,
2013-09-10 19:25:00,83.1,67.3,29.85,WSW,241,0.0,0.0,59,0.00,,CLR,0.00,VWS V14.01,2013-09-11 00:25:00,
2013-09-10 19:30:00,82.8,67.0,29.85,WSW,241,0.0,0.0,59,0.00,,CLR,0.00,VWS V14.01,2013-09-11 00:30:00,
2013-09-10 19:35:00,82.6,66.8,29.85,WSW,241,0.0,0.0,59,0.00,,CLR,0.00,VWS V14.01,2013-09-11 00:35:00,
2013-09-10 19:40:00,82.4,67.1,29.86,WSW,241,0.0,0.0,60,0.00,,CLR,0.00,VWS V14.01,2013-09-11 00:40:00,
2013-09-10 19:46:00,82.2,66.9,29.86,WSW,241,0.0,0.0,60,0.00,,CLR,0.00,VWS V14.01,2013-09-11 00:46:00,
2013-09-10 19:51:00,82.0,67.2,29.86,WSW,241,0.0,0.0,61,0.00,,CLR,0.00,VWS V14.01,2013-09-11 00:51:00,
2013-09-10 19:56:00,81.8,67.1,29.86,WSW,241,0.0,0.0,61,0.00,,CLR,0.00,VWS V14.01,2013-09-11 00:56:00,
2013-09-10 20:00:00,81.8,67.1,29.86,WSW,241,0.0,0.0,61,0.00,,CLR,0.00,VWS V14.01,2013-09-11 01:00:00,
2013-09-10 20:01:00,81.8,67.1,29.86,WSW,241,0.0,0.0,61,0.00,,CLR,0.00,VWS V14.01,2013-09-11 01:01:00,
2013-09-10 20:06:00,81.7,67.4,29.86,WSW,241,0.0,0.0,62,0.00,,CLR,0.00,VWS V14.01,2013-09-11 01:06:00,
2013-09-10 20:11:00,81.6,67.8,29.86,WSW,241,0.0,0.0,63,0.00,,CLR,0.00,VWS V14.01,2013-09-11 01:11:00,
2013-09-10 20:16:00,81.4,67.6,29.87,WSW,241,0.0,0.0,63,0.00,,CLR,0.00,VWS V14.01,2013-09-11 01:16:00,
2013-09-10 20:21:00,81.2,67.9,29.87,WSW,241,0.0,0.0,64,0.00,,CLR,0.00,VWS V14.01,2013-09-11 01:21:00,
2013-09-10 20:26:00,81.0,67.7,29.87,WSW,241,0.0,0.0,64,0.00,,CLR,0.00,VWS V14.01,2013-09-11 01:26:00,
2013-09-10 20:30:00,80.8,67.0,29.87,WSW,241,0.0,0.0,63,0.00,,CLR,0.00,VWS V14.01,2013-09-11 01:30:00,
2013-09-10 20:31:00,80.7,67.4,29.87,WSW,241,0.0,0.0,64,0.00,,CLR,0.00,VWS V14.01,2013-09-11 01:31:00,
2013-09-10 20:36:00,80.5,67.2,29.88,WSW,241,0.0,0.0,64,0.00,,CLR,0.00,VWS V14.01,2013-09-11 01:36:00,
2013-09-10 20:41:00,80.3,67.9,29.88,WSW,241,0.0,0.0,66,0.00,,CLR,0.00,VWS V14.01,2013-09-11 01:41:00,
2013-09-10 20:47:00,80.1,67.7,29.88,WSW,241,0.0,0.0,66,0.00,,CLR,0.00,VWS V14.01,2013-09-11 01:47:00,
2013-09-10 20:52:00,79.9,67.1,29.88,WSW,241,0.0,0.0,65,0.00,,CLR,0.00,VWS V14.01,2013-09-11 01:52:00,
2013-09-10 20:57:00,79.7,67.3,29.89,WSW,241,0.0,0.0,66,0.00,,CLR,0.00,VWS V14.01,2013-09-11 01:57:00,
2013-09-10 21:00:00,79.6,66.8,29.89,WSW,241,0.0,0.0,65,0.00,,CLR,0.00,VWS V14.01,2013-09-11 02:00:00,
2013-09-10 21:02:00,79.5,67.2,29.89,WSW,241,0.0,0.0,66,0.00,,CLR,0.00,VWS V14.01,2013-09-11 02:02:00,
2013-09-10 21:07:00,79.4,67.5,29.89,WSW,241,0.0,0.0,67,0.00,,CLR,0.00,VWS V14.01,2013-09-11 02:07:00,
2013-09-10 21:12:00,79.4,67.5,29.89,WSW,241,0.0,0.0,67,0.00,,CLR,0.00,VWS V14.01,2013-09-11 02:12:00,
2013-09-10 21:17:00,79.3,67.8,29.89,WSW,241,0.0,0.0,68,0.00,,CLR,0.00,VWS V14.01,2013-09-11 02:17:00,
2013-09-10 21:22:00,79.3,68.3,29.89,WSW,241,0.0,0.0,69,0.00,,CLR,0.00,VWS V14.01,2013-09-11 02:22:00,
2013-09-10 21:27:00,79.3,68.3,29.89,WSW,241,0.0,0.0,69,0.00,,CLR,0.00,VWS V14.01,2013-09-11 02:27:00,
2013-09-10 21:30:00,79.2,68.2,29.89,WSW,241,0.0,0.0,69,0.00,,CLR,0.00,VWS V14.01,2013-09-11 02:30:00,
2013-09-10 21:32:00,79.2,68.6,29.89,WSW,241,0.0,0.0,70,0.00,,CLR,0.00,VWS V14.01,2013-09-11 02:32:00,
2013-09-10 21:37:00,79.0,68.4,29.89,WSW,241,0.0,0.0,70,0.00,,CLR,0.00,VWS V14.01,2013-09-11 02:37:00,
2013-09-10 21:42:00,78.9,68.3,29.90,WSW,241,0.0,0.0,70,0.00,,CLR,0.00,VWS V14.01,2013-09-11 02:42:00,
2013-09-10 21:47:00,78.7,68.9,29.90,WSW,241,0.0,0.0,72,0.00,,CLR,0.00,VWS V14.01,2013-09-11 02:47:00,
2013-09-10 21:53:00,78.5,68.7,29.90,WSW,241,0.0,0.0,72,0.00,,CLR,0.00,VWS V14.01,2013-09-11 02:53:00,
2013-09-10 21:58:00,78.3,68.9,29.90,WSW,241,0.0,0.0,73,0.00,,CLR,0.00,VWS V14.01,2013-09-11 02:58:00,
2013-09-10 22:00:00,78.3,68.5,29.90,WSW,241,0.0,0.0,72,0.00,,CLR,0.00,VWS V14.01,2013-09-11 03:00:00,
2013-09-10 22:03:00,78.2,68.8,29.90,WSW,241,0.0,0.0,73,0.00,,CLR,0.00,VWS V14.01,2013-09-11 03:03:00,
2013-09-10 22:08:00,78.1,68.8,29.90,WSW,241,0.0,0.0,73,0.00,,CLR,0.00,VWS V14.01,2013-09-11 03:08:00,
2013-09-10 22:13:00,78.0,68.7,29.90,WSW,241,0.0,0.0,73,0.00,,CLR,0.00,VWS V14.01,2013-09-11 03:13:00,
2013-09-10 22:18:00,77.8,68.9,29.90,WSW,241,0.0,0.0,74,0.00,,CLR,0.00,VWS V14.01,2013-09-11 03:18:00,
2013-09-10 22:23:00,77.6,68.7,29.90,WSW,241,0.0,0.0,74,0.00,,CLR,0.00,VWS V14.01,2013-09-11 03:23:00,
2013-09-10 22:28:00,77.5,68.6,29.90,WSW,241,0.0,0.0,74,0.00,,CLR,0.00,VWS V14.01,2013-09-11 03:28:00,
2013-09-10 22:30:00,77.4,68.5,29.90,WSW,241,0.0,0.0,74,0.00,,CLR,0.00,VWS V14.01,2013-09-11 03:30:00,
2013-09-10 22:33:00,77.3,68.4,29.90,WSW,241,0.0,0.0,74,0.00,,CLR,0.00,VWS V14.01,2013-09-11 03:33:00,
2013-09-10 22:38:00,77.2,68.3,29.90,WSW,241,0.0,0.0,74,0.00,,CLR,0.00,VWS V14.01,2013-09-11 03:38:00,
2013-09-10 22:43:00,77.0,68.5,29.90,WSW,241,0.0,0.0,75,0.00,,CLR,0.00,VWS V14.01,2013-09-11 03:43:00,
2013-09-10 22:48:00,76.9,68.4,29.90,WSW,241,0.0,0.0,75,0.00,,CLR,0.00,VWS V14.01,2013-09-11 03:48:00,
2013-09-10 22:53:00,76.8,68.3,29.90,WSW,241,0.0,0.0,75,0.00,,CLR,0.00,VWS V14.01,2013-09-11 03:53:00,
2013-09-10 22:59:00,76.7,68.2,29.90,WSW,241,0.0,0.0,75,0.00,,CLR,0.00,VWS V14.01,2013-09-11 03:59:00,
2013-09-10 23:00:00,76.7,68.2,29.90,WSW,241,0.0,0.0,75,0.00,,CLR,0.00,VWS V14.01,2013-09-11 04:00:00,
2013-09-10 23:01:00,76.7,68.2,29.90,WSW,241,0.0,0.0,75,0.00,,CLR,0.00,VWS V14.01,2013-09-11 04:01:00,
2013-09-10 23:02:00,76.6,68.1,29.90,WSW,241,0.0,0.0,75,0.00,,CLR,0.00,VWS V14.01,2013-09-11 04:02:00,
2013-09-10 23:03:00,76.6,68.1,29.90,WSW,241,0.0,0.0,75,0.00,,CLR,0.00,VWS V14.01,2013-09-11 04:03:00,
2013-09-10 23:04:00,76.6,68.1,29.90,WSW,241,0.0,0.0,75,0.00,,CLR,0.00,VWS V14.01,2013-09-11 04:04:00,
2013-09-10 23:09:00,76.6,68.1,29.90,WSW,241,0.0,0.0,75,0.00,,CLR,0.00,VWS V14.01,2013-09-11 04:09:00,
2013-09-10 23:14:00,76.5,68.4,29.90,WSW,241,0.0,0.0,76,0.00,,CLR,0.00,VWS V14.01,2013-09-11 04:14:00,
2013-09-10 23:19:00,76.4,68.3,29.90,WSW,241,0.0,0.0,76,0.00,,CLR,0.00,VWS V14.01,2013-09-11 04:19:00,
2013-09-10 23:24:00,76.4,68.3,29.90,WSW,241,0.0,0.0,76,0.00,,CLR,0.00,VWS V14.01,2013-09-11 04:24:00,
2013-09-10 23:29:00,76.3,68.2,29.90,WSW,241,0.0,0.0,76,0.00,,CLR,0.00,VWS V14.01,2013-09-11 04:29:00,
2013-09-10 23:30:00,76.3,68.2,29.90,WSW,241,0.0,0.0,76,0.00,,CLR,0.00,VWS V14.01,2013-09-11 04:30:00,
2013-09-10 23:34:00,76.3,68.2,29.90,WSW,241,0.0,0.0,76,0.00,,CLR,0.00,VWS V14.01,2013-09-11 04:34:00,
2013-09-10 23:39:00,76.3,68.2,29.90,WSW,241,0.0,0.0,76,0.00,,CLR,0.00,VWS V14.01,2013-09-11 04:39:00,
2013-09-10 23:44:00,76.4,68.3,29.90,WSW,241,0.0,0.0,76,0.00,,CLR,0.00,VWS V14.01,2013-09-11 04:44:00,
2013-09-10 23:49:00,76.5,68.0,29.90,WSW,241,0.0,0.0,75,0.00,,CLR,0.00,VWS V14.01,2013-09-11 04:49:00,
2013-09-10 23:54:00,76.6,68.1,29.90,WSW,241,0.0,0.0,75,0.00,,CLR,0.00,VWS V14.01,2013-09-11 04:54:00,
2013-09-10 23:59:00,76.7,68.2,29.90,WSW,241,0.0,0.0,75,0.00,,CLR,0.00,VWS V14.01,2013-09-11 04:59:00,